Time,TemperatureF,DewpointF,PressureIn,WindDirection,WindDirectionDegrees,WindSpeedMPH,WindSpeedGustMPH,Humidity,HourlyPrecipIn,Conditions,Clouds,dailyrainin,SoftwareType,DateUTC
2013-02-18 00:02:00,51.8,40.9,30.13,SE,126,0.0,2.7,66,0.00,,,0.00,WUHU216WMR968SP,2013-02-18 08:02:00,
2013-02-18 00:07:00,50.0,39.6,30.13,East,94,0.0,2.7,67,0.00,,,0.00,WUHU216WMR968SP,2013-02-18 08:07:00,
2013-02-18 00:12:00,52.0,41.5,30.13,East,85,0.0,0.0,67,0.00,,,0.00,WUHU216WMR968SP,2013-02-18 08:12:00,
2013-02-18 00:17:00,52.2,41.7,30.13,East,97,2.2,3.6,67,0.00,,,0.00,WUHU216WMR968SP,2013-02-18 08:17:00,
2013-02-18 00:22:00,52.2,41.7,30.13,ESE,116,0.0,4.0,67,0.00,,,0.00,WUHU216WMR968SP,2013-02-18 08:22:00,
2013-02-18 00:27:00,52.3,41.8,30.13,ENE,68,0.0,4.0,67,0.00,,,0.00,WUHU216WMR968SP,2013-02-18 08:27:00,
2013-02-18 00:32:00,52.5,42.0,30.13,East,98,0.0,3.1,67,0.00,,,0.00,WUHU216WMR968SP,2013-02-18 08:32:00,
2013-02-18 00:37:00,52.5,42.0,30.13,East,83,0.0,3.6,67,0.00,,,0.00,WUHU216WMR968SP,2013-02-18 08:37:00,
2013-02-18 00:42:00,52.7,41.8,30.13,ESE,105,2.7,3.6,66,0.00,,,0.00,WUHU216WMR968SP,2013-02-18 08:42:00,
2013-02-18 00:47:00,52.7,41.8,30.13,ESE,118,0.0,4.0,66,0.00,,,0.00,WUHU216WMR968SP,2013-02-18 08:47:00,
2013-02-18 00:52:00,52.7,41.8,30.13,ESE,117,0.0,4.0,66,0.00,,,0.00,WUHU216WMR968SP,2013-02-18 08:52:00,
2013-02-18 00:57:00,52.9,42.0,30.13,East,97,2.2,4.0,66,0.00,,,0.00,WUHU216WMR968SP,2013-02-18 08:57:00,
2013-02-18 01:03:00,52.9,42.0,30.13,ESE,111,2.2,4.0,66,0.00,,,0.00,WUHU216WMR968SP,2013-02-18 09:03:00,
2013-02-18 01:08:00,52.9,42.0,30.10,East,98,0.0,4.0,66,0.00,,,0.00,WUHU216WMR968SP,2013-02-18 09:08:00,
2013-02-18 01:13:00,52.7,41.8,30.10,East,92,0.0,4.0,66,0.00,,,0.00,WUHU216WMR968SP,2013-02-18 09:13:00,
2013-02-18 01:18:00,52.7,41.8,30.10,ESE,114,0.0,4.0,66,0.00,,,0.00,WUHU216WMR968SP,2013-02-18 09:18:00,
2013-02-18 01:23:00,52.7,41.8,30.10,ENE,70,0.0,4.0,66,0.00,,,0.00,WUHU216WMR968SP,2013-02-18 09:23:00,
2013-02-18 01:28:00,52.5,41.6,30.10,East,90,0.0,3.6,66,0.00,,,0.00,WUHU216WMR968SP,2013-02-18 09:28:00,
2013-02-18 01:33:00,52.5,41.6,30.10,East,90,0.0,3.6,66,0.00,,,0.00,WUHU216WMR968SP,2013-02-18 09:33:00,
2013-02-18 01:38:00,52.3,41.4,30.13,East,84,3.1,4.0,66,0.00,,,0.00,WUHU216WMR968SP,2013-02-18 09:38:00,
2013-02-18 01:43:00,52.2,41.3,30.13,East,86,0.0,4.0,66,0.00,,,0.00,WUHU216WMR968SP,2013-02-18 09:43:00,
2013-02-18 01:48:00,52.2,41.3,30.13,East,86,0.0,3.1,66,0.00,,,0.00,WUHU216WMR968SP,2013-02-18 09:48:00,
2013-02-18 01:53:00,52.2,41.3,30.13,ESE,121,0.0,2.2,66,0.00,,,0.00,WUHU216WMR968SP,2013-02-18 09:53:00,
2013-02-18 01:58:00,52.0,41.1,30.13,ENE,76,0.0,3.1,66,0.00,,,0.00,WUHU216WMR968SP,2013-02-18 09:58:00,
2013-02-18 02:03:00,52.0,41.1,30.13,East,91,0.0,3.1,66,0.00,,,0.00,WUHU216WMR968SP,2013-02-18 10:03:00,
2013-02-18 02:08:00,52.0,41.1,30.10,East,98,0.0,3.1,66,0.00,,,0.00,WUHU216WMR968SP,2013-02-18 10:08:00,
2013-02-18 02:13:00,51.8,40.9,30.10,ESE,107,0.0,2.7,66,0.00,,,0.00,WUHU216WMR968SP,2013-02-18 10:13:00,
2013-02-18 02:18:00,51.8,40.9,30.10,ESE,107,0.0,2.2,66,0.00,,,0.00,WUHU216WMR968SP,2013-02-18 10:18:00,
2013-02-18 02:23:00,51.8,40.9,30.10,ESE,107,0.0,0.0,66,0.00,,,0.00,WUHU216WMR968SP,2013-02-18 10:23:00,
2013-02-18 02:28:00,51.8,40.9,30.10,ESE,102,0.0,0.0,66,0.00,,,0.00,WUHU216WMR968SP,2013-02-18 10:28:00,
2013-02-18 02:33:00,52.0,41.1,30.10,ESE,102,0.0,0.0,66,0.00,,,0.00,WUHU216WMR968SP,2013-02-18 10:33:00,
2013-02-18 02:38:00,52.2,41.3,30.10,ESE,102,0.0,0.0,66,0.00,,,0.00,WUHU216WMR968SP,2013-02-18 10:38:00,
2013-02-18 02:43:00,52.3,41.4,30.10,ESE,102,0.0,0.0,66,0.00,,,0.00,WUHU216WMR968SP,2013-02-18 10:43:00,
2013-02-18 02:48:00,52.3,41.4,30.10,East,97,0.0,3.1,66,0.00,,,0.00,WUHU216WMR968SP,2013-02-18 10:48:00,
2013-02-18 02:53:00,52.2,41.3,30.10,ESE,113,2.7,4.0,66,0.00,,,0.00,WUHU216WMR968SP,2013-02-18 10:53:00,
2013-02-18 02:58:00,52.2,41.3,30.10,ESE,119,0.0,4.0,66,0.00,,,0.00,WUHU216WMR968SP,2013-02-18 10:58:00,
2013-02-18 03:03:00,52.0,41.1,30.10,East,101,0.0,3.1,66,0.00,,,0.00,WUHU216WMR968SP,2013-02-18 11:03:00,
2013-02-18 03:08:00,52.0,41.1,30.10,ENE,75,0.0,3.1,66,0.00,,,0.00,WUHU216WMR968SP,2013-02-18 11:08:00,
2013-02-18 03:13:00,51.8,40.9,30.10,ESE,111,0.0,3.1,66,0.00,,,0.00,WUHU216WMR968SP,2013-02-18 11:13:00,
2013-02-18 03:18:00,52.0,41.1,30.10,East,94,0.0,0.0,66,0.00,,,0.00,WUHU216WMR968SP,2013-02-18 11:18:00,
2013-02-18 03:23:00,52.0,41.1,30.10,East,94,0.0,0.0,66,0.00,,,0.00,WUHU216WMR968SP,2013-02-18 11:23:00,
2013-02-18 03:28:00,51.8,40.9,30.10,ESE,116,0.0,3.1,66,0.00,,,0.00,WUHU216WMR968SP,2013-02-18 11:28:00,
2013-02-18 03:33:00,51.8,40.9,30.10,SE,128,0.0,3.6,66,0.00,,,0.00,WUHU216WMR968SP,2013-02-18 11:33:00,
2013-02-18 03:38:00,51.8,40.9,30.10,ESE,118,0.0,3.6,66,0.00,,,0.00,WUHU216WMR968SP,2013-02-18 11:38:00,
2013-02-18 03:43:00,51.8,40.9,30.10,ESE,103,0.0,2.7,66,0.00,,,0.00,WUHU216WMR968SP,2013-02-18 11:43:00,
2013-02-18 03:48:00,51.6,41.1,30.10,East,92,0.0,2.7,67,0.00,,,0.00,WUHU216WMR968SP,2013-02-18 11:48:00,
2013-02-18 03:53:00,51.6,41.1,30.13,ESE,115,2.2,3.1,67,0.00,,,0.00,WUHU216WMR968SP,2013-02-18 11:53:00,
2013-02-18 03:58:00,51.6,41.1,30.13,ESE,108,0.0,3.1,67,0.00,,,0.00,WUHU216WMR968SP,2013-02-18 11:58:00,
2013-02-18 04:03:00,51.6,41.1,30.13,East,81,0.0,3.1,67,0.00,,,0.00,WUHU216WMR968SP,2013-02-18 12:03:00,
2013-02-18 04:08:00,51.4,40.9,30.13,East,93,0.0,3.1,67,0.00,,,0.00,WUHU216WMR968SP,2013-02-18 12:08:00,
2013-02-18 04:13:00,51.3,40.8,30.13,East,84,0.0,3.1,67,0.00,,,0.00,WUHU216WMR968SP,2013-02-18 12:13:00,
2013-02-18 04:18:00,51.3,40.8,30.13,East,83,0.0,3.1,67,0.00,,,0.00,WUHU216WMR968SP,2013-02-18 12:18:00,
2013-02-18 04:23:00,51.3,40.8,30.13,East,86,0.0,3.1,67,0.00,,,0.00,WUHU216WMR968SP,2013-02-18 12:23:00,
2013-02-18 04:28:00,51.3,41.2,30.13,ESE,117,0.0,3.1,68,0.00,,,0.00,WUHU216WMR968SP,2013-02-18 12:28:00,
2013-02-18 04:33:00,51.3,41.2,30.13,East,82,0.0,3.6,68,0.00,,,0.00,WUHU216WMR968SP,2013-02-18 12:33:00,
2013-02-18 04:38:00,51.3,41.2,30.13,East,82,0.0,3.6,68,0.00,,,0.00,WUHU216WMR968SP,2013-02-18 12:38:00,
2013-02-18 04:43:00,51.3,41.2,30.13,East,82,0.0,2.2,68,0.00,,,0.00,WUHU216WMR968SP,2013-02-18 12:43:00,
2013-02-18 04:48:00,51.3,41.2,30.13,East,84,0.0,2.7,68,0.00,,,0.00,WUHU216WMR968SP,2013-02-18 12:48:00,
2013-02-18 04:53:00,51.3,41.2,30.13,East,93,0.0,2.7,68,0.00,,,0.00,WUHU216WMR968SP,2013-02-18 12:53:00,
2013-02-18 04:58:00,51.3,41.2,30.13,East,96,0.0,2.7,68,0.00,,,0.00,WUHU216WMR968SP,2013-02-18 12:58:00,
2013-02-18 05:03:00,51.3,41.2,30.13,ENE,60,2.7,4.0,68,0.00,,,0.00,WUHU216WMR968SP,2013-02-18 13:03:00,
2013-02-18 05:08:00,51.3,41.2,30.13,ESE,116,0.0,4.0,68,0.00,,,0.00,WUHU216WMR968SP,2013-02-18 13:08:00,
2013-02-18 05:13:00,51.3,41.2,30.13,ENE,74,2.2,4.0,68,0.00,,,0.00,WUHU216WMR968SP,2013-02-18 13:13:00,
2013-02-18 05:18:00,51.3,41.2,30.13,ESE,123,3.1,4.0,68,0.00,,,0.00,WUHU216WMR968SP,2013-02-18 13:18:00,
2013-02-18 05:23:00,51.3,41.2,30.13,ESE,121,2.7,4.0,68,0.00,,,0.00,WUHU216WMR968SP,2013-02-18 13:23:00,
2013-02-18 05:28:00,51.1,41.0,30.13,East,97,2.2,4.0,68,0.00,,,0.00,WUHU216WMR968SP,2013-02-18 13:28:00,
2013-02-18 05:33:00,51.1,41.0,30.13,ESE,121,0.0,3.6,68,0.00,,,0.00,WUHU216WMR968SP,2013-02-18 13:33:00,
2013-02-18 05:38:00,51.1,41.0,30.13,ENE,75,2.2,5.4,68,0.00,,,0.00,WUHU216WMR968SP,2013-02-18 13:38:00,
2013-02-18 05:43:00,51.1,40.6,30.13,ENE,74,0.0,5.4,67,0.00,,,0.00,WUHU216WMR968SP,2013-02-18 13:43:00,
2013-02-18 05:48:00,51.1,40.6,30.13,ENE,74,0.0,3.6,67,0.00,,,0.00,WUHU216WMR968SP,2013-02-18 13:48:00,
2013-02-18 05:53:00,51.1,40.6,30.13,ENE,75,0.0,0.0,67,0.00,,,0.00,WUHU216WMR968SP,2013-02-18 13:53:00,
2013-02-18 05:58:00,51.1,40.6,30.13,East,97,0.0,3.6,67,0.00,,,0.00,WUHU216WMR968SP,2013-02-18 13:58:00,
2013-02-18 06:03:00,51.1,40.6,30.13,East,97,0.0,3.6,67,0.00,,,0.00,WUHU216WMR968SP,2013-02-18 14:03:00,
2013-02-18 06:08:00,51.3,40.8,30.13,East,97,0.0,2.2,67,0.00,,,0.00,WUHU216WMR968SP,2013-02-18 14:08:00,
2013-02-18 06:13:00,51.3,40.8,30.13,East,97,0.0,0.0,67,0.00,,,0.00,WUHU216WMR968SP,2013-02-18 14:13:00,
2013-02-18 06:18:00,51.3,40.8,30.13,East,89,2.7,4.0,67,0.00,,,0.00,WUHU216WMR968SP,2013-02-18 14:18:00,
2013-02-18 06:23:00,51.3,40.8,30.13,East,89,0.0,4.0,67,0.00,,,0.00,WUHU216WMR968SP,2013-02-18 14:23:00,
2013-02-18 06:28:00,51.3,40.8,30.13,East,89,0.0,2.7,67,0.00,,,0.00,WUHU216WMR968SP,2013-02-18 14:28:00,
2013-02-18 06:33:00,51.4,40.5,30.13,East,89,0.0,0.0,66,0.00,,,0.00,WUHU216WMR968SP,2013-02-18 14:33:00,
2013-02-18 06:38:00,51.4,40.5,30.13,East,91,0.0,0.0,66,0.00,,,0.00,WUHU216WMR968SP,2013-02-18 14:38:00,
2013-02-18 06:43:00,51.6,40.7,30.13,ENE,78,0.0,3.6,66,0.00,,,0.00,WUHU216WMR968SP,2013-02-18 14:43:00,
2013-02-18 06:48:00,51.6,40.7,30.13,East,83,0.0,3.6,66,0.00,,,0.00,WUHU216WMR968SP,2013-02-18 14:48:00,
2013-02-18 06:53:00,51.6,40.7,30.13,ESE,106,2.2,3.6,66,0.00,,,0.00,WUHU216WMR968SP,2013-02-18 14:53:00,
2013-02-18 06:58:00,51.6,40.7,30.13,ESE,102,0.0,3.6,66,0.00,,,0.00,WUHU216WMR968SP,2013-02-18 14:58:00,
2013-02-18 07:03:00,51.8,40.9,30.13,East,82,0.0,3.6,66,0.00,,,0.00,WUHU216WMR968SP,2013-02-18 15:03:00,
2013-02-18 07:08:00,51.6,40.7,30.13,East,79,2.7,4.0,66,0.00,,,0.00,WUHU216WMR968SP,2013-02-18 15:08:00,
2013-02-18 07:14:00,51.6,40.3,30.13,East,85,3.6,4.0,65,0.00,,,0.00,WUHU216WMR968SP,2013-02-18 15:14:00,
2013-02-18 07:19:00,51.4,40.1,30.13,East,95,0.0,4.0,65,0.00,,,0.00,WUHU216WMR968SP,2013-02-18 15:19:00,
2013-02-18 07:24:00,51.6,40.7,30.13,East,96,2.2,4.0,66,0.00,,,0.00,WUHU216WMR968SP,2013-02-18 15:24:00,
2013-02-18 07:29:00,51.6,40.7,30.13,East,88,0.0,3.1,66,0.00,,,0.00,WUHU216WMR968SP,2013-02-18 15:29:00,
2013-02-18 07:34:00,51.6,40.7,30.13,ENE,74,2.2,3.6,66,0.00,,,0.00,WUHU216WMR968SP,2013-02-18 15:34:00,
2013-02-18 07:39:00,51.6,40.7,30.13,ENE,68,2.2,3.6,66,0.00,,,0.00,WUHU216WMR968SP,2013-02-18 15:39:00,
2013-02-18 07:44:00,51.6,40.3,30.13,ENE,72,2.2,4.0,65,0.00,,,0.00,WUHU216WMR968SP,2013-02-18 15:44:00,
2013-02-18 07:49:00,52.0,41.1,30.13,East,84,2.2,4.0,66,0.00,,,0.00,WUHU216WMR968SP,2013-02-18 15:49:00,
2013-02-18 07:54:00,52.0,40.7,30.13,East,82,2.7,4.5,65,0.00,,,0.00,WUHU216WMR968SP,2013-02-18 15:54:00,
2013-02-18 07:59:00,52.0,39.9,30.13,NNW,328,0.0,4.5,63,0.00,,,0.00,WUHU216WMR968SP,2013-02-18 15:59:00,
2013-02-18 08:04:00,52.0,39.5,30.13,East,95,2.2,3.6,62,0.00,,,0.00,WUHU216WMR968SP,2013-02-18 16:04:00,
2013-02-18 08:09:00,52.2,39.7,30.13,SE,140,0.0,3.6,62,0.00,,,0.00,WUHU216WMR968SP,2013-02-18 16:09:00,
2013-02-18 08:14:00,52.3,39.8,30.13,NE,47,0.0,3.1,62,0.00,,,0.00,WUHU216WMR968SP,2013-02-18 16:14:00,
2013-02-18 08:19:00,52.5,39.5,30.13,NNE,20,2.2,3.1,61,0.00,,,0.00,WUHU216WMR968SP,2013-02-18 16:19:00,
2013-02-18 08:24:00,52.5,39.5,30.13,ENE,68,2.2,3.6,61,0.00,,,0.00,WUHU216WMR968SP,2013-02-18 16:24:00,
2013-02-18 08:29:00,52.7,39.7,30.13,ENE,60,0.0,3.6,61,0.00,,,0.00,WUHU216WMR968SP,2013-02-18 16:29:00,
2013-02-18 08:34:00,52.9,39.9,30.13,East,92,0.0,3.6,61,0.00,,,0.00,WUHU216WMR968SP,2013-02-18 16:34:00,
2013-02-18 08:39:00,52.9,39.5,30.13,East,83,0.0,3.6,60,0.00,,,0.00,WUHU216WMR968SP,2013-02-18 16:39:00,
2013-02-18 08:44:00,52.9,39.5,30.13,NNE,21,0.0,3.6,60,0.00,,,0.00,WUHU216WMR968SP,2013-02-18 16:44:00,
2013-02-18 08:49:00,53.1,39.7,30.13,ENE,73,0.0,3.6,60,0.00,,,0.00,WUHU216WMR968SP,2013-02-18 16:49:00,
2013-02-18 08:54:00,53.1,39.7,30.13,NE,41,0.0,3.1,60,0.00,,,0.00,WUHU216WMR968SP,2013-02-18 16:54:00,
2013-02-18 08:59:00,53.2,39.3,30.13,NE,39,0.0,3.1,59,0.00,,,0.00,WUHU216WMR968SP,2013-02-18 16:59:00,
2013-02-18 09:04:00,53.2,39.3,30.13,NNE,13,0.0,3.1,59,0.00,,,0.00,WUHU216WMR968SP,2013-02-18 17:04:00,
2013-02-18 09:09:00,53.6,39.7,30.13,ENE,69,2.2,4.0,59,0.00,,,0.00,WUHU216WMR968SP,2013-02-18 17:09:00,
2013-02-18 09:14:00,53.6,39.7,30.13,ESE,120,0.0,5.8,59,0.00,,,0.00,WUHU216WMR968SP,2013-02-18 17:14:00,
2013-02-18 09:19:00,53.8,39.9,30.13,NE,49,0.0,5.8,59,0.00,,,0.00,WUHU216WMR968SP,2013-02-18 17:19:00,
2013-02-18 09:24:00,54.0,40.1,30.13,NE,34,0.0,3.6,59,0.00,,,0.00,WUHU216WMR968SP,2013-02-18 17:24:00,
2013-02-18 09:29:00,54.0,39.6,30.13,NNE,26,2.2,3.6,58,0.00,,,0.00,WUHU216WMR968SP,2013-02-18 17:29:00,
2013-02-18 09:34:00,54.3,39.9,30.13,East,84,0.0,4.9,58,0.00,,,0.00,WUHU216WMR968SP,2013-02-18 17:34:00,
2013-02-18 09:39:00,54.3,39.9,30.13,East,88,0.0,4.9,58,0.00,,,0.00,WUHU216WMR968SP,2013-02-18 17:39:00,
2013-02-18 09:44:00,54.5,40.1,30.13,East,97,2.2,5.8,58,0.00,,,0.00,WUHU216WMR968SP,2013-02-18 17:44:00,
2013-02-18 09:49:00,54.7,40.3,30.13,ENE,78,0.0,5.8,58,0.00,,,0.00,WUHU216WMR968SP,2013-02-18 17:49:00,
2013-02-18 09:54:00,54.9,40.5,30.13,SE,125,3.6,6.3,58,0.00,,,0.00,WUHU216WMR968SP,2013-02-18 17:54:00,
2013-02-18 09:59:00,55.2,40.8,30.13,SE,129,2.2,6.3,58,0.00,,,0.00,WUHU216WMR968SP,2013-02-18 17:59:00,
2013-02-18 10:05:00,55.6,40.7,30.13,South,176,0.0,4.0,57,0.00,,,0.00,WUHU216WMR968SP,2013-02-18 18:05:00,
2013-02-18 10:10:00,55.8,40.9,30.13,WNW,288,2.2,3.6,57,0.00,,,0.00,WUHU216WMR968SP,2013-02-18 18:10:00,
2013-02-18 10:15:00,55.8,40.9,30.13,ESE,119,2.2,4.9,57,0.00,,,0.00,WUHU216WMR968SP,2013-02-18 18:15:00,
2013-02-18 10:20:00,55.8,40.9,30.13,NW,310,0.0,5.4,57,0.00,,,0.00,WUHU216WMR968SP,2013-02-18 18:20:00,
2013-02-18 10:25:00,55.4,40.5,30.13,NW,310,0.0,5.4,57,0.00,,,0.00,WUHU216WMR968SP,2013-02-18 18:25:00,
2013-02-18 10:30:00,55.4,40.5,30.13,NW,316,0.0,2.7,57,0.00,,,0.00,WUHU216WMR968SP,2013-02-18 18:30:00,
2013-02-18 10:35:00,55.8,40.9,30.13,ENE,68,0.0,2.7,57,0.00,,,0.00,WUHU216WMR968SP,2013-02-18 18:35:00,
2013-02-18 10:40:00,56.5,41.5,30.13,SW,223,0.0,3.1,57,0.00,,,0.00,WUHU216WMR968SP,2013-02-18 18:40:00,
2013-02-18 10:45:00,57.2,41.7,30.13,SSE,153,2.2,4.0,56,0.00,,,0.00,WUHU216WMR968SP,2013-02-18 18:45:00,
2013-02-18 10:50:00,57.9,42.4,30.13,NNE,31,2.7,4.9,56,0.00,,,0.00,WUHU216WMR968SP,2013-02-18 18:50:00,
2013-02-18 10:55:00,57.9,42.4,30.13,SE,137,0.0,4.9,56,0.00,,,0.00,WUHU216WMR968SP,2013-02-18 18:55:00,
2013-02-18 11:00:00,58.5,42.9,30.13,ESE,123,0.0,5.8,56,0.00,,,0.00,WUHU216WMR968SP,2013-02-18 19:00:00,
2013-02-18 11:05:00,59.0,42.9,30.13,SSE,160,4.5,6.3,55,0.00,,,0.00,WUHU216WMR968SP,2013-02-18 19:05:00,
2013-02-18 11:10:00,59.4,43.3,30.13,East,81,0.0,6.3,55,0.00,,,0.00,WUHU216WMR968SP,2013-02-18 19:10:00,
2013-02-18 11:15:00,59.4,43.3,30.13,ESE,116,2.7,5.8,55,0.00,,,0.00,WUHU216WMR968SP,2013-02-18 19:15:00,
2013-02-18 11:20:00,59.4,43.3,30.13,ESE,110,0.0,4.9,55,0.00,,,0.00,WUHU216WMR968SP,2013-02-18 19:20:00,
2013-02-18 11:25:00,59.5,43.4,30.13,SW,230,3.6,4.9,55,0.00,,,0.00,WUHU216WMR968SP,2013-02-18 19:25:00,
2013-02-18 11:30:00,59.7,43.6,30.13,WSW,240,3.6,5.4,55,0.00,,,0.00,WUHU216WMR968SP,2013-02-18 19:30:00,
2013-02-18 11:35:00,59.2,42.6,30.13,West,280,0.0,5.4,54,0.00,,,0.00,WUHU216WMR968SP,2013-02-18 19:35:00,
2013-02-18 11:40:00,59.0,42.4,30.13,SW,231,3.1,5.8,54,0.00,,,0.00,WUHU216WMR968SP,2013-02-18 19:40:00,
2013-02-18 11:45:00,58.8,42.7,30.13,NW,326,0.0,5.8,55,0.00,,,0.00,WUHU216WMR968SP,2013-02-18 19:45:00,
2013-02-18 11:50:00,59.2,42.6,30.10,SW,223,2.2,4.0,54,0.00,,,0.00,WUHU216WMR968SP,2013-02-18 19:50:00,
2013-02-18 11:55:00,59.7,43.1,30.10,SSW,209,3.1,4.9,54,0.00,,,0.00,WUHU216WMR968SP,2013-02-18 19:55:00,
2013-02-18 12:00:00,60.4,43.7,30.10,SSW,194,0.0,5.4,54,0.00,,,0.00,WUHU216WMR968SP,2013-02-18 20:00:00,
2013-02-18 12:05:00,61.0,44.3,30.10,ENE,64,2.7,6.3,54,0.00,,,0.00,WUHU216WMR968SP,2013-02-18 20:05:00,
2013-02-18 12:10:00,61.2,44.5,30.10,East,87,3.1,6.3,54,0.00,,,0.00,WUHU216WMR968SP,2013-02-18 20:10:00,
2013-02-18 12:15:00,61.5,44.8,30.10,SSW,203,4.0,7.6,54,0.00,,,0.00,WUHU216WMR968SP,2013-02-18 20:15:00,
2013-02-18 12:20:00,62.2,45.4,30.10,SSW,198,3.6,7.6,54,0.00,,,0.00,WUHU216WMR968SP,2013-02-18 20:20:00,
2013-02-18 12:25:00,62.4,45.6,30.10,ESE,105,3.1,6.3,54,0.00,,,0.00,WUHU216WMR968SP,2013-02-18 20:25:00,
2013-02-18 12:30:00,62.6,45.3,30.10,SW,235,4.0,6.3,53,0.00,,,0.00,WUHU216WMR968SP,2013-02-18 20:30:00,
2013-02-18 12:35:00,62.6,45.3,30.10,SW,235,2.7,6.3,53,0.00,,,0.00,WUHU216WMR968SP,2013-02-18 20:35:00,
2013-02-18 12:40:00,62.2,43.9,30.10,WSW,238,5.8,6.3,51,0.00,,,0.00,WUHU216WMR968SP,2013-02-18 20:40:00,
2013-02-18 12:45:00,61.7,43.4,30.10,NNW,336,2.2,6.3,51,0.00,,,0.00,WUHU216WMR968SP,2013-02-18 20:45:00,
2013-02-18 12:50:00,61.3,43.0,30.07,SW,219,7.6,8.7,51,0.00,,,0.00,WUHU216WMR968SP,2013-02-18 20:50:00,
2013-02-18 12:55:00,61.9,43.6,30.07,WSW,242,3.6,8.7,51,0.00,,,0.00,WUHU216WMR968SP,2013-02-18 20:55:00,
2013-02-18 13:00:00,62.2,43.9,30.07,NNE,16,0.0,6.3,51,0.00,,,0.00,WUHU216WMR968SP,2013-02-18 21:00:00,
2013-02-18 13:05:00,62.4,44.1,30.04,WSW,256,3.6,7.6,51,0.00,,,0.00,WUHU216WMR968SP,2013-02-18 21:05:00,
2013-02-18 13:10:00,62.4,44.1,30.04,WSW,243,3.1,7.6,51,0.00,,,0.00,WUHU216WMR968SP,2013-02-18 21:10:00,
2013-02-18 13:15:00,63.0,44.6,30.04,SSW,194,4.0,8.3,51,0.00,,,0.00,WUHU216WMR968SP,2013-02-18 21:15:00,
2013-02-18 13:20:00,63.1,44.7,30.07,WSW,241,0.0,8.3,51,0.00,,,0.00,WUHU216WMR968SP,2013-02-18 21:20:00,
2013-02-18 13:25:00,62.4,44.1,30.07,SW,236,3.6,6.7,51,0.00,,,0.00,WUHU216WMR968SP,2013-02-18 21:25:00,
2013-02-18 13:30:00,62.6,44.3,30.07,SW,224,4.0,6.7,51,0.00,,,0.00,WUHU216WMR968SP,2013-02-18 21:30:00,
2013-02-18 13:35:00,63.1,44.7,30.04,WSW,244,3.1,6.3,51,0.00,,,0.00,WUHU216WMR968SP,2013-02-18 21:35:00,
2013-02-18 13:40:00,63.0,44.6,30.04,West,270,3.6,7.6,51,0.00,,,0.00,WUHU216WMR968SP,2013-02-18 21:40:00,
2013-02-18 13:45:00,63.1,44.7,30.04,SW,231,0.0,7.6,51,0.00,,,0.00,WUHU216WMR968SP,2013-02-18 21:45:00,
2013-02-18 13:50:00,63.7,45.3,30.04,NNW,340,4.0,6.3,51,0.00,,,0.00,WUHU216WMR968SP,2013-02-18 21:50:00,
2013-02-18 13:55:00,63.9,45.5,30.04,SSW,198,5.4,6.3,51,0.00,,,0.00,WUHU216WMR968SP,2013-02-18 21:55:00,
2013-02-18 14:00:00,64.2,44.1,30.04,South,172,2.2,5.8,48,0.00,,,0.00,WUHU216WMR968SP,2013-02-18 22:00:00,
2013-02-18 14:05:00,64.4,44.3,30.04,SW,236,3.1,7.2,48,0.00,,,0.00,WUHU216WMR968SP,2013-02-18 22:05:00,
2013-02-18 14:10:00,64.2,44.1,30.04,SW,230,4.0,7.2,48,0.00,,,0.00,WUHU216WMR968SP,2013-02-18 22:10:00,
2013-02-18 14:15:00,64.6,44.5,30.04,SW,217,3.1,6.7,48,0.00,,,0.00,WUHU216WMR968SP,2013-02-18 22:15:00,
2013-02-18 14:20:00,64.9,44.7,30.04,SE,136,3.6,6.7,48,0.00,,,0.00,WUHU216WMR968SP,2013-02-18 22:20:00,
2013-02-18 14:25:00,65.1,44.9,30.04,WSW,237,2.2,6.3,48,0.00,,,0.00,WUHU216WMR968SP,2013-02-18 22:25:00,
2013-02-18 14:30:00,64.8,44.6,30.04,SE,145,0.0,5.8,48,0.00,,,0.00,WUHU216WMR968SP,2013-02-18 22:30:00,
2013-02-18 14:35:00,64.8,44.6,30.04,ESE,110,2.7,5.8,48,0.00,,,0.00,WUHU216WMR968SP,2013-02-18 22:35:00,
2013-02-18 14:40:00,64.9,44.7,30.04,SSW,194,3.6,5.8,48,0.00,,,0.00,WUHU216WMR968SP,2013-02-18 22:40:00,
2013-02-18 14:45:00,65.1,44.9,30.04,East,96,2.7,5.8,48,0.00,,,0.00,WUHU216WMR968SP,2013-02-18 22:45:00,
2013-02-18 14:50:00,65.1,44.9,30.04,South,179,3.1,5.8,48,0.00,,,0.00,WUHU216WMR968SP,2013-02-18 22:50:00,
2013-02-18 14:55:00,65.1,44.9,30.04,South,175,3.1,6.3,48,0.00,,,0.00,WUHU216WMR968SP,2013-02-18 22:55:00,
2013-02-18 15:00:00,65.3,45.1,30.04,SW,236,3.6,6.3,48,0.00,,,0.00,WUHU216WMR968SP,2013-02-18 23:00:00,
2013-02-18 15:05:00,65.5,45.3,30.04,WSW,255,3.1,8.1,48,0.00,,,0.00,WUHU216WMR968SP,2013-02-18 23:05:00,
2013-02-18 15:10:00,65.1,44.9,30.04,WSW,246,6.3,8.3,48,0.00,,,0.00,WUHU216WMR968SP,2013-02-18 23:10:00,
2013-02-18 15:15:00,64.8,44.6,30.04,SSE,147,0.0,8.7,48,0.00,,,0.00,WUHU216WMR968SP,2013-02-18 23:15:00,
2013-02-18 15:21:00,64.6,44.5,30.01,SW,215,0.0,8.7,48,0.00,,,0.00,WUHU216WMR968SP,2013-02-18 23:21:00,
2013-02-18 15:26:00,64.6,44.5,30.01,SW,219,0.0,0.0,48,0.00,,,0.00,WUHU216WMR968SP,2013-02-18 23:26:00,
2013-02-18 15:31:00,64.4,44.3,30.01,SSW,212,0.0,0.0,48,0.00,,,0.00,WUHU216WMR968SP,2013-02-18 23:31:00,
2013-02-18 15:36:00,64.2,44.1,30.01,SSW,196,0.0,0.0,48,0.00,,,0.00,WUHU216WMR968SP,2013-02-18 23:36:00,
2013-02-18 15:41:00,64.0,43.9,30.01,SSE,163,0.0,0.0,48,0.00,,,0.00,WUHU216WMR968SP,2013-02-18 23:41:00,
2013-02-18 15:46:00,63.9,43.8,30.01,SW,229,0.0,0.0,48,0.00,,,0.00,WUHU216WMR968SP,2013-02-18 23:46:00,
2013-02-18 15:51:00,63.7,43.6,30.01,SW,224,0.0,0.0,48,0.00,,,0.00,WUHU216WMR968SP,2013-02-18 23:51:00,
2013-02-18 15:56:00,63.5,43.4,30.01,WSW,240,0.0,0.0,48,0.00,,,0.00,WUHU216WMR968SP,2013-02-18 23:56:00,
2013-02-18 16:01:00,63.1,43.1,30.01,WSW,250,0.0,0.0,48,0.00,,,0.00,WUHU216WMR968SP,2013-02-19 00:01:00,
2013-02-18 16:06:00,63.0,43.0,30.01,SSW,196,0.0,0.0,48,0.00,,,0.00,WUHU216WMR968SP,2013-02-19 00:06:00,
2013-02-18 16:11:00,62.6,44.3,30.01,WSW,241,0.0,0.0,51,0.00,,,0.00,WUHU216WMR968SP,2013-02-19 00:11:00,
2013-02-18 16:16:00,62.4,44.1,30.01,WSW,243,0.0,0.0,51,0.00,,,0.00,WUHU216WMR968SP,2013-02-19 00:16:00,
2013-02-18 16:21:00,62.1,43.8,30.01,SSW,210,0.0,0.0,51,0.00,,,0.00,WUHU216WMR968SP,2013-02-19 00:21:00,
2013-02-18 16:26:00,61.7,43.4,30.01,SSW,207,0.0,0.0,51,0.00,,,0.00,WUHU216WMR968SP,2013-02-19 00:26:00,
2013-02-18 16:31:00,61.7,43.4,30.01,SSW,211,0.0,0.0,51,0.00,,,0.00,WUHU216WMR968SP,2013-02-19 00:31:00,
2013-02-18 16:36:00,61.5,43.2,30.01,SSE,163,0.0,0.0,51,0.00,,,0.00,WUHU216WMR968SP,2013-02-19 00:36:00,
2013-02-18 16:41:00,61.2,43.0,30.01,WSW,244,0.0,0.0,51,0.00,,,0.00,WUHU216WMR968SP,2013-02-19 00:41:00,
2013-02-18 16:46:00,60.8,42.6,30.01,SSW,203,0.0,0.0,51,0.00,,,0.00,WUHU216WMR968SP,2013-02-19 00:46:00,
2013-02-18 16:51:00,60.4,42.7,30.01,South,190,0.0,0.0,52,0.00,,,0.00,WUHU216WMR968SP,2013-02-19 00:51:00,
2013-02-18 16:56:00,60.1,42.5,30.01,SSW,194,0.0,0.0,52,0.00,,,0.00,WUHU216WMR968SP,2013-02-19 00:56:00,
2013-02-18 17:01:00,59.7,42.1,30.01,SSE,158,4.5,6.3,52,0.00,,,0.00,WUHU216WMR968SP,2013-02-19 01:01:00,
2013-02-18 17:06:00,59.4,41.8,30.01,SSW,201,4.0,6.3,52,0.00,,,0.00,WUHU216WMR968SP,2013-02-19 01:06:00,
2013-02-18 17:11:00,59.0,42.4,30.01,SSW,207,4.0,5.8,54,0.00,,,0.00,WUHU216WMR968SP,2013-02-19 01:11:00,
2013-02-18 17:16:00,58.6,42.1,30.01,SSW,210,4.0,6.3,54,0.00,,,0.00,WUHU216WMR968SP,2013-02-19 01:16:00,
2013-02-18 17:21:00,58.3,41.8,30.01,SSW,201,3.6,6.3,54,0.00,,,0.00,WUHU216WMR968SP,2013-02-19 01:21:00,
2013-02-18 17:26:00,57.9,41.9,30.01,South,182,3.1,5.8,55,0.00,,,0.00,WUHU216WMR968SP,2013-02-19 01:26:00,
2013-02-18 17:31:00,57.4,41.4,30.01,SW,222,3.1,5.4,55,0.00,,,0.00,WUHU216WMR968SP,2013-02-19 01:31:00,
2013-02-18 17:36:00,57.2,41.2,30.01,WSW,237,3.6,8.1,55,0.00,,,0.00,WUHU216WMR968SP,2013-02-19 01:36:00,
2013-02-18 17:41:00,56.8,40.9,30.01,WSW,255,4.0,8.1,55,0.00,,,0.00,WUHU216WMR968SP,2013-02-19 01:41:00,
2013-02-18 17:47:00,56.7,41.3,30.01,SW,236,4.5,6.3,56,0.00,,,0.00,WUHU216WMR968SP,2013-02-19 01:47:00,
2013-02-18 17:52:00,56.3,40.9,30.01,South,175,4.0,6.3,56,0.00,,,0.00,WUHU216WMR968SP,2013-02-19 01:52:00,
2013-02-18 17:57:00,56.1,40.7,30.01,South,189,4.0,6.3,56,0.00,,,0.00,WUHU216WMR968SP,2013-02-19 01:57:00,
2013-02-18 18:02:00,55.9,40.5,30.01,SSW,209,4.0,6.3,56,0.00,,,0.00,WUHU216WMR968SP,2013-02-19 02:02:00,
2013-02-18 18:07:00,55.8,40.4,30.01,WSW,246,4.9,5.8,56,0.00,,,0.00,WUHU216WMR968SP,2013-02-19 02:07:00,
2013-02-18 18:12:00,55.4,40.0,30.01,West,261,4.5,5.8,56,0.00,,,0.00,WUHU216WMR968SP,2013-02-19 02:12:00,
2013-02-18 18:17:00,55.0,40.1,30.01,South,183,3.1,6.7,57,0.00,,,0.00,WUHU216WMR968SP,2013-02-19 02:17:00,
2013-02-18 18:22:00,54.9,40.0,30.04,WSW,240,4.9,6.7,57,0.00,,,0.00,WUHU216WMR968SP,2013-02-19 02:22:00,
2013-02-18 18:27:00,54.5,40.1,30.04,West,264,3.6,6.3,58,0.00,,,0.00,WUHU216WMR968SP,2013-02-19 02:27:00,
2013-02-18 18:32:00,54.5,40.1,30.04,SW,216,4.0,6.3,58,0.00,,,0.00,WUHU216WMR968SP,2013-02-19 02:32:00,
2013-02-18 18:37:00,54.5,40.1,30.04,SW,217,3.6,6.3,58,0.00,,,0.00,WUHU216WMR968SP,2013-02-19 02:37:00,
2013-02-18 18:42:00,54.5,40.6,30.04,SSW,206,3.1,5.4,59,0.00,,,0.00,WUHU216WMR968SP,2013-02-19 02:42:00,
2013-02-18 18:47:00,54.7,40.7,30.04,South,191,4.0,6.3,59,0.00,,,0.00,WUHU216WMR968SP,2013-02-19 02:47:00,
2013-02-18 18:52:00,54.7,40.7,30.04,SW,230,4.0,6.3,59,0.00,,,0.00,WUHU216WMR968SP,2013-02-19 02:52:00,
2013-02-18 18:57:00,54.5,40.6,30.04,SW,215,3.1,6.3,59,0.00,,,0.00,WUHU216WMR968SP,2013-02-19 02:57:00,
2013-02-18 19:02:00,54.5,41.0,30.04,SW,224,4.0,7.2,60,0.00,,,0.00,WUHU216WMR968SP,2013-02-19 03:02:00,
2013-02-18 19:07:00,54.3,40.8,30.04,SW,231,4.0,7.2,60,0.00,,,0.00,WUHU216WMR968SP,2013-02-19 03:07:00,
2013-02-18 19:12:00,54.3,40.8,30.04,SSW,210,3.6,6.3,60,0.00,,,0.00,WUHU216WMR968SP,2013-02-19 03:12:00,
2013-02-18 19:17:00,54.3,40.8,30.04,SW,230,2.2,6.3,60,0.00,,,0.00,WUHU216WMR968SP,2013-02-19 03:17:00,
2013-02-18 19:22:00,54.5,41.0,30.04,SW,236,3.6,5.4,60,0.00,,,0.00,WUHU216WMR968SP,2013-02-19 03:22:00,
2013-02-18 19:27:00,54.5,41.0,30.04,SW,233,3.1,5.4,60,0.00,,,0.00,WUHU216WMR968SP,2013-02-19 03:27:00,
2013-02-18 19:32:00,54.5,41.0,30.04,SW,220,4.9,6.3,60,0.00,,,0.00,WUHU216WMR968SP,2013-02-19 03:32:00,
2013-02-18 19:37:00,54.3,40.8,30.04,WSW,248,4.9,6.3,60,0.00,,,0.00,WUHU216WMR968SP,2013-02-19 03:37:00,
2013-02-18 19:42:00,54.3,40.8,30.04,SSW,206,3.6,5.8,60,0.00,,,0.00,WUHU216WMR968SP,2013-02-19 03:42:00,
2013-02-18 19:47:00,54.5,41.0,30.04,WSW,243,2.2,5.8,60,0.00,,,0.00,WUHU216WMR968SP,2013-02-19 03:47:00,
2013-02-18 19:52:00,54.5,41.0,30.07,SW,221,4.5,6.3,60,0.00,,,0.00,WUHU216WMR968SP,2013-02-19 03:52:00,
2013-02-18 19:57:00,54.3,40.8,30.07,WSW,240,4.5,6.3,60,0.00,,,0.00,WUHU216WMR968SP,2013-02-19 03:57:00,
2013-02-18 20:02:00,54.3,40.8,30.07,SW,231,4.5,6.3,60,0.00,,,0.00,WUHU216WMR968SP,2013-02-19 04:02:00,
2013-02-18 20:07:00,54.3,40.8,30.07,WSW,246,4.5,6.3,60,0.00,,,0.00,WUHU216WMR968SP,2013-02-19 04:07:00,
2013-02-18 20:12:00,54.3,40.8,30.07,SSW,207,3.1,6.3,60,0.00,,,0.00,WUHU216WMR968SP,2013-02-19 04:12:00,
2013-02-18 20:17:00,54.3,40.8,30.07,WSW,251,3.1,5.8,60,0.00,,,0.00,WUHU216WMR968SP,2013-02-19 04:17:00,
2013-02-18 20:22:00,54.3,40.8,30.07,SW,229,3.1,5.8,60,0.00,,,0.00,WUHU216WMR968SP,2013-02-19 04:22:00,
2013-02-18 20:27:00,54.3,40.8,30.07,SSW,206,4.0,6.7,60,0.00,,,0.00,WUHU216WMR968SP,2013-02-19 04:27:00,
2013-02-18 20:33:00,54.3,40.8,30.07,South,188,4.0,6.7,60,0.00,,,0.00,WUHU216WMR968SP,2013-02-19 04:33:00,
2013-02-18 20:38:00,54.1,40.6,30.07,South,179,3.6,6.3,60,0.00,,,0.00,WUHU216WMR968SP,2013-02-19 04:38:00,
2013-02-18 20:43:00,54.1,40.2,30.07,SSW,194,4.5,8.3,59,0.00,,,0.00,WUHU216WMR968SP,2013-02-19 04:43:00,
2013-02-18 20:48:00,54.1,40.2,30.07,SSW,208,2.7,8.3,59,0.00,,,0.00,WUHU216WMR968SP,2013-02-19 04:48:00,
2013-02-18 20:53:00,54.3,40.4,30.07,SSW,211,2.2,6.3,59,0.00,,,0.00,WUHU216WMR968SP,2013-02-19 04:53:00,
2013-02-18 20:58:00,54.5,40.6,30.07,SW,225,4.0,5.8,59,0.00,,,0.00,WUHU216WMR968SP,2013-02-19 04:58:00,
2013-02-18 21:03:00,54.3,40.4,30.07,WSW,244,3.6,5.8,59,0.00,,,0.00,WUHU216WMR968SP,2013-02-19 05:03:00,
2013-02-18 21:08:00,54.1,40.2,30.07,SSW,192,2.7,5.8,59,0.00,,,0.00,WUHU216WMR968SP,2013-02-19 05:08:00,
2013-02-18 21:13:00,54.1,40.2,30.07,SW,223,0.0,5.4,59,0.00,,,0.00,WUHU216WMR968SP,2013-02-19 05:13:00,
2013-02-18 21:18:00,54.1,40.2,30.07,WSW,250,3.6,5.4,59,0.00,,,0.00,WUHU216WMR968SP,2013-02-19 05:18:00,
2013-02-18 21:23:00,54.1,40.2,30.07,WSW,237,0.0,4.5,59,0.00,,,0.00,WUHU216WMR968SP,2013-02-19 05:23:00,
2013-02-18 21:28:00,54.1,40.2,30.07,SW,219,2.7,5.8,59,0.00,,,0.00,WUHU216WMR968SP,2013-02-19 05:28:00,
2013-02-18 21:33:00,54.0,40.1,30.07,SW,227,3.6,6.7,59,0.00,,,0.00,WUHU216WMR968SP,2013-02-19 05:33:00,
2013-02-18 21:38:00,54.0,40.1,30.07,SSE,157,3.6,6.7,59,0.00,,,0.00,WUHU216WMR968SP,2013-02-19 05:38:00,
2013-02-18 21:43:00,54.0,40.1,30.07,SSW,198,2.2,5.8,59,0.00,,,0.00,WUHU216WMR968SP,2013-02-19 05:43:00,
2013-02-18 21:48:00,54.1,40.2,30.07,SSE,147,2.2,5.8,59,0.00,,,0.00,WUHU216WMR968SP,2013-02-19 05:48:00,
2013-02-18 21:53:00,54.1,39.7,30.07,SW,214,4.0,5.4,58,0.00,,,0.00,WUHU216WMR968SP,2013-02-19 05:53:00,
2013-02-18 21:58:00,54.1,39.7,30.07,SSW,203,2.2,5.4,58,0.00,,,0.00,WUHU216WMR968SP,2013-02-19 05:58:00,
2013-02-18 22:03:00,54.1,39.7,30.07,SSW,205,2.7,4.0,58,0.00,,,0.00,WUHU216WMR968SP,2013-02-19 06:03:00,
2013-02-18 22:08:00,54.1,39.7,30.07,SSW,195,3.6,5.4,58,0.00,,,0.00,WUHU216WMR968SP,2013-02-19 06:08:00,
2013-02-18 22:13:00,54.1,39.7,30.07,SSW,200,3.1,5.4,58,0.00,,,0.00,WUHU216WMR968SP,2013-02-19 06:13:00,
2013-02-18 22:18:00,54.1,39.7,30.07,ESE,122,0.0,4.5,58,0.00,,,0.00,WUHU216WMR968SP,2013-02-19 06:18:00,
2013-02-18 22:23:00,54.0,39.6,30.07,ESE,106,0.0,6.3,58,0.00,,,0.00,WUHU216WMR968SP,2013-02-19 06:23:00,
2013-02-18 22:28:00,54.0,39.2,30.07,ESE,109,2.7,6.3,57,0.00,,,0.00,WUHU216WMR968SP,2013-02-19 06:28:00,
2013-02-18 22:33:00,53.8,39.0,30.07,SE,129,3.6,5.8,57,0.00,,,0.00,WUHU216WMR968SP,2013-02-19 06:33:00,
2013-02-18 22:38:00,53.6,38.8,30.07,WSW,237,3.1,6.3,57,0.00,,,0.00,WUHU216WMR968SP,2013-02-19 06:38:00,
2013-02-18 22:43:00,53.4,39.1,30.07,SSW,213,2.7,6.3,58,0.00,,,0.00,WUHU216WMR968SP,2013-02-19 06:43:00,
2013-02-18 22:48:00,53.4,39.1,30.07,SW,219,3.6,4.0,58,0.00,,,0.00,WUHU216WMR968SP,2013-02-19 06:48:00,
2013-02-18 22:53:00,53.4,39.1,30.07,SW,233,3.1,4.9,58,0.00,,,0.00,WUHU216WMR968SP,2013-02-19 06:53:00,
2013-02-18 22:58:00,53.4,39.1,30.07,SW,235,2.2,5.4,58,0.00,,,0.00,WUHU216WMR968SP,2013-02-19 06:58:00,
2013-02-18 23:03:00,53.4,38.6,30.07,SSE,167,0.0,5.4,57,0.00,,,0.00,WUHU216WMR968SP,2013-02-19 07:03:00,
2013-02-18 23:08:00,53.4,38.6,30.07,SSW,196,3.1,4.9,57,0.00,,,0.00,WUHU216WMR968SP,2013-02-19 07:08:00,
2013-02-18 23:13:00,53.6,38.8,30.07,SSW,196,0.0,4.9,57,0.00,,,0.00,WUHU216WMR968SP,2013-02-19 07:13:00,
2013-02-18 23:18:00,53.6,38.8,30.07,SW,234,3.1,4.9,57,0.00,,,0.00,WUHU216WMR968SP,2013-02-19 07:18:00,
2013-02-18 23:23:00,53.6,38.8,30.04,SW,221,4.0,5.4,57,0.00,,,0.00,WUHU216WMR968SP,2013-02-19 07:23:00,
2013-02-18 23:28:00,53.4,38.6,30.04,SSE,156,0.0,5.4,57,0.00,,,0.00,WUHU216WMR968SP,2013-02-19 07:28:00,
2013-02-18 23:33:00,53.2,38.4,30.04,SE,135,2.2,4.0,57,0.00,,,0.00,WUHU216WMR968SP,2013-02-19 07:33:00,
2013-02-18 23:38:00,53.2,38.4,30.07,SW,230,2.2,4.5,57,0.00,,,0.00,WUHU216WMR968SP,2013-02-19 07:38:00,
2013-02-18 23:43:00,53.1,38.3,30.07,SW,216,2.7,4.5,57,0.00,,,0.00,WUHU216WMR968SP,2013-02-19 07:43:00,
2013-02-18 23:48:00,53.2,38.4,30.07,SSE,162,0.0,4.0,57,0.00,,,0.00,WUHU216WMR968SP,2013-02-19 07:48:00,
2013-02-18 23:53:00,53.2,38.4,30.07,SSW,195,2.7,4.0,57,0.00,,,0.00,WUHU216WMR968SP,2013-02-19 07:53:00,
2013-02-18 23:58:00,53.2,38.4,30.07,South,183,0.0,4.0,57,0.00,,,0.00,WUHU216WMR968SP,2013-02-19 07:58:00,